Time,TemperatureF,DewpointF,PressureIn,WindDirection,WindDirectionDegrees,WindSpeedMPH,WindSpeedGustMPH,Humidity,HourlyPrecipIn,Conditions,Clouds,dailyrainin,SolarRadiationWatts/m^2,SoftwareType,DateUTC
2013-05-21 00:08:00,56.3,50.0,29.93,North,360,0.0,0.0,80,0.00,,,0.00,0,weatherlink.com 1.10,2013-05-20 22:08:00,
2013-05-21 00:23:00,56.1,50.0,29.93,SW,233,0.0,0.0,81,0.00,,,0.00,0,weatherlink.com 1.10,2013-05-20 22:23:00,
2013-05-21 00:38:00,56.0,51.0,29.93,SW,231,0.0,1.0,82,0.00,,,0.00,0,weatherlink.com 1.10,2013-05-20 22:38:00,
2013-05-21 00:53:00,56.3,51.0,29.93,North,360,0.0,0.0,82,0.00,,,0.00,0,weatherlink.com 1.10,2013-05-20 22:53:00,
2013-05-21 01:08:00,56.3,51.0,29.93,SW,233,0.0,1.0,82,0.00,,,0.00,0,weatherlink.com 1.10,2013-05-20 23:08:00,
2013-05-21 01:23:00,56.5,51.0,29.93,SW,233,0.0,1.0,82,0.00,,,0.00,0,weatherlink.com 1.10,2013-05-20 23:23:00,
2013-05-21 01:38:00,56.3,51.0,29.93,SW,233,0.0,1.0,81,0.00,,,0.00,0,weatherlink.com 1.10,2013-05-20 23:38:00,
2013-05-21 01:53:00,55.9,50.0,29.92,SW,233,0.0,3.0,81,0.00,,,0.00,0,weatherlink.com 1.10,2013-05-20 23:53:00,
2013-05-21 02:09:00,55.5,49.0,29.92,SW,234,0.0,1.0,80,0.00,,,0.00,0,weatherlink.com 1.10,2013-05-21 00:09:00,
2013-05-21 02:24:00,55.1,49.0,29.92,North,360,0.0,2.0,81,0.00,,,0.00,0,weatherlink.com 1.10,2013-05-21 00:24:00,
2013-05-21 02:39:00,54.7,49.0,29.92,SW,235,0.0,3.0,80,0.00,,,0.00,0,weatherlink.com 1.10,2013-05-21 00:39:00,
2013-05-21 02:54:00,54.9,48.0,29.92,WSW,246,0.0,3.0,78,0.00,,,0.00,0,weatherlink.com 1.10,2013-05-21 00:54:00,
2013-05-21 03:09:00,55.7,48.0,29.92,North,355,2.0,3.0,75,0.00,,,0.00,0,weatherlink.com 1.10,2013-05-21 01:09:00,
2013-05-21 03:24:00,56.7,48.0,29.93,SW,234,2.0,3.0,72,0.00,,,0.00,0,weatherlink.com 1.10,2013-05-21 01:24:00,
2013-05-21 03:39:00,57.2,47.0,29.93,SSW,195,0.0,6.0,70,0.00,,,0.00,0,weatherlink.com 1.10,2013-05-21 01:39:00,
2013-05-21 03:54:00,57.5,48.0,29.93,SSW,207,0.0,1.0,70,0.00,,,0.00,0,weatherlink.com 1.10,2013-05-21 01:54:00,
2013-05-21 04:09:00,56.9,48.0,29.92,SSW,209,1.0,1.0,71,0.00,,,0.00,0,weatherlink.com 1.10,2013-05-21 02:09:00,
2013-05-21 04:24:00,55.9,48.0,29.92,SSW,205,0.0,2.0,74,0.00,,,0.00,0,weatherlink.com 1.10,2013-05-21 02:24:00,
2013-05-21 04:39:00,55.4,48.0,29.92,SSW,209,0.0,1.0,75,0.00,,,0.00,0,weatherlink.com 1.10,2013-05-21 02:39:00,
2013-05-21 04:54:00,54.6,48.0,29.92,SSW,204,0.0,2.0,77,0.00,,,0.00,0,weatherlink.com 1.10,2013-05-21 02:54:00,
2013-05-21 05:09:00,54.1,47.0,29.92,North,360,0.0,1.0,78,0.00,,,0.00,7,weatherlink.com 1.10,2013-05-21 03:09:00,
2013-05-21 05:24:00,53.7,48.0,29.92,SW,232,0.0,1.0,80,0.00,,,0.00,21,weatherlink.com 1.10,2013-05-21 03:24:00,
2013-05-21 05:39:00,54.2,49.0,29.92,SW,234,0.0,0.0,81,0.00,,,0.00,42,weatherlink.com 1.10,2013-05-21 03:39:00,
2013-05-21 05:54:00,56.2,50.0,29.92,NNW,330,0.0,3.0,80,0.00,,,0.00,49,weatherlink.com 1.10,2013-05-21 03:54:00,
2013-05-21 06:09:00,57.8,51.0,29.92,NNE,21,0.0,0.0,77,0.00,,,0.00,54,weatherlink.com 1.10,2013-05-21 04:09:00,
2013-05-21 06:24:00,57.8,50.0,29.93,SW,232,0.0,4.0,76,0.00,,,0.00,58,weatherlink.com 1.10,2013-05-21 04:24:00,
2013-05-21 06:39:00,57.4,50.0,29.93,South,178,3.0,6.0,77,0.00,,,0.00,79,weatherlink.com 1.10,2013-05-21 04:39:00,
2013-05-21 06:54:00,57.4,50.0,29.93,SSW,199,1.0,6.0,77,0.00,,,0.00,137,weatherlink.com 1.10,2013-05-21 04:54:00,
2013-05-21 07:09:00,57.6,50.0,29.93,SSE,155,4.0,5.0,76,0.00,,,0.00,83,weatherlink.com 1.10,2013-05-21 05:09:00,
2013-05-21 07:24:00,59.6,51.0,29.93,WSW,251,1.0,5.0,73,0.00,,,0.00,343,weatherlink.com 1.10,2013-05-21 05:24:00,
2013-05-21 07:39:00,64.7,50.0,29.93,North,360,3.0,10.0,60,0.00,,,0.00,339,weatherlink.com 1.10,2013-05-21 05:39:00,
2013-05-21 07:54:00,63.5,50.0,29.93,WSW,253,2.0,7.0,62,0.00,,,0.00,439,weatherlink.com 1.10,2013-05-21 05:54:00,
2013-05-21 08:09:00,65.5,50.0,29.92,North,360,2.0,11.0,58,0.00,,,0.00,482,weatherlink.com 1.10,2013-05-21 06:09:00,
2013-05-21 08:23:00,67.5,51.0,29.92,SSW,209,1.0,7.0,55,0.00,,,0.00,570,weatherlink.com 1.10,2013-05-21 06:23:00,
2013-05-21 08:39:00,65.3,50.0,29.92,WSW,256,4.0,9.0,58,0.00,,,0.00,236,weatherlink.com 1.10,2013-05-21 06:39:00,
2013-05-21 08:54:00,66.0,51.0,29.91,SW,225,3.0,8.0,58,0.00,,,0.00,253,weatherlink.com 1.10,2013-05-21 06:54:00,
2013-05-21 09:24:00,69.1,51.0,29.92,North,360,0.0,9.0,53,0.00,,,0.00,659,weatherlink.com 1.10,2013-05-21 07:24:00,
2013-05-21 09:39:00,68.2,51.0,29.91,SSW,203,5.0,9.0,55,0.00,,,0.00,693,weatherlink.com 1.10,2013-05-21 07:39:00,
2013-05-21 09:54:00,70.4,52.0,29.91,SSW,209,3.0,7.0,53,0.00,,,0.00,724,weatherlink.com 1.10,2013-05-21 07:54:00,
2013-05-21 10:10:00,68.2,49.0,29.91,SSE,149,5.0,13.0,51,0.00,,,0.00,752,weatherlink.com 1.10,2013-05-21 08:10:00,
2013-05-21 10:25:00,70.0,50.0,29.91,SSW,211,2.0,11.0,49,0.00,,,0.00,780,weatherlink.com 1.10,2013-05-21 08:25:00,
2013-05-21 10:40:00,71.1,51.0,29.92,SW,222,3.0,9.0,50,0.00,,,0.00,821,weatherlink.com 1.10,2013-05-21 08:40:00,
2013-05-21 10:55:00,70.5,50.0,29.92,SW,215,4.0,10.0,49,0.00,,,0.00,882,weatherlink.com 1.10,2013-05-21 08:55:00,
2013-05-21 11:10:00,69.7,51.0,29.92,SW,223,5.0,10.0,52,0.00,,,0.00,1002,weatherlink.com 1.10,2013-05-21 09:10:00,
2013-05-21 11:40:00,70.4,49.0,29.93,North,360,6.0,15.0,47,0.00,,,0.00,902,weatherlink.com 1.10,2013-05-21 09:40:00,
2013-05-21 12:10:00,71.0,49.0,29.91,South,169,3.0,15.0,46,0.00,,,0.00,942,weatherlink.com 1.10,2013-05-21 10:10:00,
2013-05-21 12:40:00,69.9,51.0,29.91,WSW,242,1.0,14.0,51,0.00,,,0.00,921,weatherlink.com 1.10,2013-05-21 10:40:00,
2013-05-21 12:55:00,71.4,51.0,29.90,SW,229,5.0,10.0,48,0.00,,,0.00,967,weatherlink.com 1.10,2013-05-21 10:55:00,
2013-05-21 13:10:00,71.1,50.0,29.90,SW,216,5.0,13.0,48,0.00,,,0.00,925,weatherlink.com 1.10,2013-05-21 11:10:00,
2013-05-21 13:25:00,71.3,49.0,29.89,SSW,208,4.0,10.0,45,0.00,,,0.00,919,weatherlink.com 1.10,2013-05-21 11:25:00,
2013-05-21 13:55:00,70.7,49.0,29.89,SW,227,1.0,10.0,47,0.00,,,0.00,236,weatherlink.com 1.10,2013-05-21 11:55:00,
2013-05-21 14:25:00,72.3,51.0,29.88,SW,231,1.0,8.0,47,0.00,,,0.00,919,weatherlink.com 1.10,2013-05-21 12:25:00,
2013-05-21 14:40:00,70.9,50.0,29.87,North,360,9.0,14.0,47,0.00,,,0.00,172,weatherlink.com 1.10,2013-05-21 12:40:00,
2013-05-21 15:10:00,70.5,50.0,29.87,SW,234,7.0,14.0,48,0.00,,,0.00,909,weatherlink.com 1.10,2013-05-21 13:10:00,
2013-05-21 15:25:00,70.4,50.0,29.86,SSW,213,7.0,7.0,49,0.00,,,0.00,763,weatherlink.com 1.10,2013-05-21 13:25:00,
2013-05-21 15:40:00,71.2,50.0,29.86,SSW,207,5.0,9.0,47,0.00,,,0.00,673,weatherlink.com 1.10,2013-05-21 13:40:00,
2013-05-21 15:55:00,71.7,50.0,29.86,WSW,242,5.0,6.0,47,0.00,,,0.00,696,weatherlink.com 1.10,2013-05-21 13:55:00,
2013-05-21 16:10:00,71.8,49.0,29.86,WSW,240,3.0,6.0,44,0.00,,,0.00,640,weatherlink.com 1.10,2013-05-21 14:10:00,
2013-05-21 16:25:00,70.4,48.0,29.85,WSW,240,0.0,5.0,45,0.00,,,0.00,149,weatherlink.com 1.10,2013-05-21 14:25:00,
2013-05-21 16:40:00,70.6,48.0,29.85,SW,233,2.0,6.0,44,0.00,,,0.00,121,weatherlink.com 1.10,2013-05-21 14:40:00,
2013-05-21 16:55:00,70.4,49.0,29.84,SW,229,2.0,6.0,47,0.00,,,0.00,163,weatherlink.com 1.10,2013-05-21 14:55:00,
2013-05-21 17:09:00,70.3,48.0,29.84,WSW,247,2.0,5.0,45,0.00,,,0.00,98,weatherlink.com 1.10,2013-05-21 15:09:00,
2013-05-21 17:24:00,70.2,49.0,29.84,SW,217,0.0,7.0,48,0.00,,,0.00,134,weatherlink.com 1.10,2013-05-21 15:24:00,
2013-05-21 17:55:00,70.0,47.0,29.83,SW,233,1.0,5.0,44,0.00,,,0.00,132,weatherlink.com 1.10,2013-05-21 15:55:00,
2013-05-21 18:10:00,69.7,47.0,29.83,SW,231,0.0,5.0,44,0.00,,,0.00,130,weatherlink.com 1.10,2013-05-21 16:10:00,
2013-05-21 18:25:00,69.2,49.0,29.83,SW,229,1.0,2.0,48,0.00,,,0.00,91,weatherlink.com 1.10,2013-05-21 16:25:00,
2013-05-21 18:40:00,68.9,47.0,29.82,WSW,243,0.0,4.0,46,0.00,,,0.00,93,weatherlink.com 1.10,2013-05-21 16:40:00,
2013-05-21 18:55:00,68.7,48.0,29.82,WSW,241,0.0,3.0,47,0.00,,,0.00,63,weatherlink.com 1.10,2013-05-21 16:55:00,
2013-05-21 19:10:00,68.7,49.0,29.82,WSW,242,0.0,1.0,49,0.00,,,0.00,69,weatherlink.com 1.10,2013-05-21 17:10:00,
2013-05-21 19:25:00,68.2,48.0,29.82,WSW,244,0.0,2.0,48,0.00,,,0.00,39,weatherlink.com 1.10,2013-05-21 17:25:00,
2013-05-21 19:40:00,67.7,52.0,29.82,WSW,244,0.0,0.0,57,0.00,,,0.00,33,weatherlink.com 1.10,2013-05-21 17:40:00,
2013-05-21 19:55:00,66.1,51.0,29.82,WSW,244,0.0,1.0,59,0.00,,,0.00,14,weatherlink.com 1.10,2013-05-21 17:55:00,
2013-05-21 20:10:00,65.1,46.0,29.82,WSW,242,6.0,14.0,51,0.00,,,0.00,0,weatherlink.com 1.10,2013-05-21 18:10:00,
2013-05-21 20:25:00,65.4,46.0,29.83,SW,229,3.0,12.0,49,0.00,,,0.00,0,weatherlink.com 1.10,2013-05-21 18:25:00,
2013-05-21 20:40:00,64.8,46.0,29.83,SW,225,0.0,5.0,50,0.00,,,0.00,0,weatherlink.com 1.10,2013-05-21 18:40:00,
2013-05-21 20:55:00,64.2,46.0,29.83,SW,225,0.0,1.0,52,0.00,,,0.00,0,weatherlink.com 1.10,2013-05-21 18:55:00,
2013-05-21 21:10:00,63.2,46.0,29.83,North,360,0.0,4.0,53,0.00,,,0.00,0,weatherlink.com 1.10,2013-05-21 19:10:00,
2013-05-21 21:25:00,62.5,45.0,29.83,SW,232,0.0,6.0,54,0.00,,,0.00,0,weatherlink.com 1.10,2013-05-21 19:25:00,
2013-05-21 21:40:00,62.2,45.0,29.83,SW,232,0.0,4.0,54,0.00,,,0.00,0,weatherlink.com 1.10,2013-05-21 19:40:00,
2013-05-21 21:55:00,62.1,45.0,29.83,SW,230,0.0,2.0,54,0.00,,,0.00,0,weatherlink.com 1.10,2013-05-21 19:55:00,
2013-05-21 22:10:00,61.7,45.0,29.83,North,360,1.0,4.0,55,0.00,,,0.00,0,weatherlink.com 1.10,2013-05-21 20:10:00,
2013-05-21 22:26:00,61.3,45.0,29.82,SW,215,0.0,6.0,56,0.00,,,0.00,0,weatherlink.com 1.10,2013-05-21 20:26:00,
2013-05-21 22:41:00,61.3,46.0,29.83,SW,233,0.0,3.0,57,0.00,,,0.00,0,weatherlink.com 1.10,2013-05-21 20:41:00,
2013-05-21 22:56:00,61.2,46.0,29.82,North,360,0.0,2.0,58,0.00,,,0.00,0,weatherlink.com 1.10,2013-05-21 20:56:00,
2013-05-21 23:11:00,60.7,46.0,29.82,SW,233,0.0,5.0,59,0.00,,,0.00,0,weatherlink.com 1.10,2013-05-21 21:11:00,
2013-05-21 23:26:00,60.1,46.0,29.81,WSW,237,1.0,2.0,61,0.00,,,0.00,0,weatherlink.com 1.10,2013-05-21 21:26:00,
2013-05-21 23:41:00,59.0,47.0,29.81,SW,234,0.0,2.0,64,0.00,,,0.00,0,weatherlink.com 1.10,2013-05-21 21:41:00,
2013-05-21 23:56:00,58.3,47.0,29.81,SW,233,0.0,1.0,66,0.00,,,0.00,0,weatherlink.com 1.10,2013-05-21 21:56:00,